GEFSNE_con_prob3kmehi_276.txt.gz
EHI
7 9 9 10 10 9 8 8 7 5 5 6 6 5 3 2 1 1 0 0 0 0 0 0 0 0 0 0 0 0 0 0 0 0 0 0 0 0
12 12 13 13 12 11 10 10 9 8 7 8 8 6 5 4 3 2 1 0 0 0 0 0 0 0 0 0 0 0 0 0 0 0 0 0 0 0
15 16 17 17 16 15 14 13 12 11 10 9 10 8 7 5 4 4 2 1 0 0 0 0 0 0 0 0 0 0 0 0 0 0 0 0 0 0
16 17 18 19 18 18 17 16 14 13 11 10 10 9 7 5 4 4 3 2 1 1 0 0 0 0 0 0 0 0 0 0 0 0 0 0 0 0
15 16 17 18 19 19 19 18 16 15 14 12 10 8 7 5 4 3 4 4 3 2 0 0 0 0 0 0 0 0 0 0 0 0 0 0 0 0
14 14 15 15 16 17 17 17 16 17 17 14 11 8 6 5 4 3 4 5 5 3 1 0 0 0 0 0 0 0 0 0 0 0 0 0 0 0
16 14 13 12 11 10 11 11 13 16 17 15 12 9 7 6 4 4 4 5 5 4 1 0 0 0 0 0 0 0 0 0 0 0 0 0 0 0
16 14 12 11 8 7 5 5 7 11 13 13 12 9 8 7 6 5 5 5 5 4 2 1 0 0 0 0 0 0 0 0 0 0 0 0 0 0
13 13 12 11 10 9 6 4 5 6 7 9 10 9 8 7 6 5 6 6 5 4 3 2 1 0 0 0 0 0 0 0 0 0 0 0 0 0
13 13 13 11 10 10 9 8 7 6 5 6 7 7 6 6 6 5 5 5 5 4 3 3 2 1 0 0 0 0 0 0 0 0 0 0 0 0
16 15 13 11 9 7 8 9 8 7 4 3 3 4 4 4 4 4 4 4 4 3 3 3 3 2 1 1 0 0 0 0 0 0 0 0 0 0
19 16 12 9 5 3 4 6 7 6 5 3 3 4 4 4 3 3 3 3 3 3 3 3 3 3 2 1 0 0 0 0 0 0 0 0 0 0
19 16 11 6 2 1 2 4 5 6 6 6 7 7 7 6 6 5 4 4 4 3 3 3 2 2 2 1 0 0 0 0 0 0 0 0 0 0
17 14 8 3 0 0 1 2 3 4 6 7 9 9 9 9 10 10 9 8 6 4 3 2 1 1 1 0 0 0 0 0 0 0 0 0 0 0
14 10 5 1 0 0 0 1 1 3 5 8 9 9 9 10 12 13 12 9 7 3 2 2 1 0 1 1 1 1 0 0 1 1 1 1 0 0
9 6 3 2 2 2 2 3 3 4 6 8 10 10 9 10 12 12 10 7 4 2 2 3 3 2 2 3 2 2 2 2 2 3 3 2 1 1
7 6 5 6 6 6 7 8 8 8 8 10 12 12 11 11 11 10 8 6 3 2 3 5 6 5 4 3 2 2 4 4 4 5 5 4 2 2
7 9 10 10 11 11 11 12 13 13 13 12 13 14 13 13 13 11 8 6 4 3 4 6 7 5 4 3 1 1 4 5 6 6 5 3 3 3
7 10 12 13 15 15 15 14 15 16 15 13 12 12 12 13 13 10 7 5 4 3 3 4 3 2 2 2 2 1 2 4 5 5 4 3 3 3
7 9 12 14 16 17 16 15 16 16 15 12 12 11 11 11 10 7 5 4 3 3 3 2 1 1 2 2 2 1 0 2 3 4 4 4 3 2
10 11 13 14 15 16 15 15 14 15 14 13 12 12 11 10 8 5 3 3 3 3 3 3 3 3 2 2 1 0 0 0 1 3 4 4 2 1
12 11 12 12 13 13 13 12 11 12 13 14 13 12 11 10 7 4 3 3 4 4 3 4 4 3 2 1 0 0 0 1 1 2 2 1 1 1
12 9 8 10 11 11 11 11 10 10 11 13 13 12 11 9 7 5 3 4 5 4 3 4 3 2 1 0 0 0 1 2 2 2 1 0 0 0

GEFSNE_con_prob3kmehi_282.txt.gz
EHI
17 18 19 17 14 16 20 22 22 19 18 17 16 13 10 7 5 3 2 1 0 0 0 0 0 0 0 0 0 0 0 0 0 0 0 0 0 0
17 17 17 17 15 16 20 23 23 21 19 17 16 14 11 7 5 3 2 1 0 0 0 0 0 0 0 0 0 0 0 0 0 0 0 0 0 0
15 16 17 18 18 19 21 23 23 23 20 18 18 17 13 10 6 4 3 2 1 0 0 0 0 0 0 0 0 0 0 0 0 0 0 0 0 0
14 16 19 20 22 23 22 22 22 21 20 19 19 18 15 11 8 5 4 3 2 1 0 0 0 0 0 0 0 0 0 0 0 0 0 0 0 0
16 18 21 23 24 24 21 20 19 19 19 19 19 19 16 11 8 6 5 4 3 2 1 0 0 0 0 0 0 0 0 0 0 0 0 0 0 0
19 21 22 22 23 21 18 16 16 18 20 20 19 19 16 12 9 6 6 5 4 3 1 0 0 0 0 0 0 0 0 0 0 0 0 0 0 0
24 24 22 19 19 17 13 12 14 17 19 19 18 18 17 15 11 8 6 4 3 3 2 1 0 0 0 0 0 0 0 0 0 0 0 0 0 0
28 26 21 17 15 13 11 10 11 12 13 14 15 16 16 16 14 11 7 4 3 4 3 2 1 0 0 0 0 0 0 0 0 0 0 0 0 0
27 25 21 17 14 14 13 11 9 8 7 8 10 13 14 13 13 11 7 4 4 4 4 3 2 1 0 0 0 0 0 0 0 0 0 0 0 0
23 22 21 19 16 15 14 13 12 9 5 4 7 10 10 9 8 7 6 4 3 4 4 3 3 3 1 0 0 0 0 0 0 0 0 0 0 0
23 21 21 19 16 13 13 15 15 12 7 4 4 6 7 5 4 4 3 2 2 3 5 4 4 3 2 1 1 0 0 0 0 0 0 0 0 0
24 22 20 17 12 9 11 14 16 15 11 6 4 4 5 5 4 4 3 1 1 3 6 5 4 4 4 3 2 1 0 0 0 0 0 0 0 0
25 23 19 13 7 5 7 11 12 12 11 8 6 6 7 8 8 7 6 4 3 4 6 6 5 5 4 4 2 1 0 0 1 0 0 0 0 0
25 23 17 9 3 1 3 5 6 7 8 8 7 8 10 13 15 14 11 8 7 7 6 6 5 4 4 3 2 1 0 2 3 2 2 1 1 0
21 18 11 4 1 0 1 2 3 4 6 7 8 9 10 14 18 18 15 13 12 10 7 6 5 4 4 3 2 1 1 2 3 4 3 3 2 2
12 11 8 4 3 3 3 3 4 5 5 7 8 9 12 15 18 17 15 14 13 11 9 8 7 6 5 3 1 1 1 2 2 3 2 2 3 3
9 11 11 10 10 9 9 9 9 9 8 8 9 11 14 17 17 15 14 13 11 10 11 11 9 7 5 2 0 1 1 1 2 2 1 1 1 2
10 13 16 16 15 14 14 15 15 15 13 13 14 15 17 17 16 15 14 13 10 9 11 12 10 7 3 1 0 1 1 1 1 1 1 0 0 1
13 14 16 16 14 14 15 16 17 18 18 19 20 19 18 17 16 14 14 13 11 10 10 10 9 6 3 1 0 0 0 0 0 0 0 0 0 0
16 16 16 15 14 14 14 15 18 20 21 22 22 21 19 18 16 14 13 11 10 9 8 9 7 4 2 1 0 0 0 0 0 0 0 0 0 0
17 17 17 17 17 15 15 16 19 21 21 21 20 18 17 16 14 13 10 8 7 8 7 7 5 2 1 0 0 0 0 0 0 0 0 0 0 0
17 17 17 18 17 15 14 16 17 17 17 16 15 14 13 13 12 11 8 7 7 6 5 4 3 2 1 0 0 0 0 0 0 0 0 0 0 0
15 15 16 17 16 13 12 14 15 14 12 11 11 11 10 11 11 10 8 7 7 6 3 1 2 2 1 0 0 0 0 0 0 0 0 0 0 0

GEFSNE_con_prob3kmehi_288.txt.gz
EHI
3 3 3 3 3 4 5 6 6 5 5 4 2 1 0 0 0 0 0 0 0 0 0 0 0 0 0 0 0 0 0 0 0 0 0 0 0 0
3 3 4 5 6 6 6 7 6 6 6 4 2 1 0 0 0 0 0 0 0 0 0 0 0 0 0 0 0 0 0 0 0 0 0 0 0 0
4 5 6 8 9 9 9 8 8 7 6 4 2 1 0 0 0 0 0 0 0 0 0 0 0 0 0 0 0 0 0 0 0 0 0 0 0 0
6 7 9 10 10 10 11 10 9 8 7 4 2 1 0 0 0 0 0 0 0 0 0 0 0 0 0 0 0 0 0 0 0 0 0 0 0 0
8 8 9 10 10 11 12 12 10 9 8 5 2 0 0 0 0 0 0 0 0 0 0 0 0 0 0 0 0 0 0 0 0 0 0 0 0 0
8 8 8 9 10 12 13 11 9 8 8 6 3 1 0 0 0 0 0 0 0 0 0 0 0 0 0 0 0 0 0 0 0 0 0 0 0 0
9 9 8 8 9 11 10 8 7 7 7 5 3 2 1 1 1 0 0 0 0 0 0 0 0 0 0 0 0 0 0 0 0 0 0 0 0 0
10 10 9 9 8 7 6 5 5 6 6 5 4 3 3 2 2 1 0 0 0 0 0 0 0 0 0 0 0 0 0 0 0 0 0 0 0 0
11 10 10 9 8 6 4 3 3 4 6 6 5 4 3 3 3 2 1 0 0 0 0 0 0 0 0 0 0 0 0 0 0 0 0 0 0 0
10 10 9 7 6 5 4 3 4 4 4 5 5 5 4 3 3 3 1 0 0 0 0 0 0 0 0 0 0 0 0 0 0 0 0 0 0 0
9 10 9 6 4 2 2 3 3 4 3 3 3 4 3 2 3 3 2 1 0 0 0 0 0 0 0 0 0 0 0 0 0 0 0 0 0 0
10 10 9 7 4 1 1 1 1 2 3 3 3 2 2 1 1 2 2 1 0 0 0 0 0 0 0 0 0 0 0 0 0 0 0 0 0 0
12 12 10 7 4 1 0 0 0 1 2 3 4 4 3 2 2 2 1 0 0 0 0 0 0 0 0 0 0 0 0 0 0 0 0 0 0 0
16 15 11 7 2 0 0 0 0 0 1 2 4 5 5 4 3 3 2 1 0 0 0 0 0 0 0 0 0 0 0 0 0 0 0 0 0 0
13 12 9 4 1 0 0 0 0 0 0 1 3 5 5 4 4 3 3 2 1 0 0 0 0 0 0 0 0 0 0 0 0 0 0 0 0 0
8 7 4 1 0 0 1 1 1 1 0 0 2 4 4 3 3 3 3 3 2 1 1 0 0 0 0 0 0 0 0 0 0 0 0 0 0 0
5 3 1 0 0 1 2 2 2 2 1 0 0 2 3 3 3 3 3 3 3 3 2 1 0 0 0 0 0 0 0 0 0 1 0 0 0 0
3 4 3 3 2 2 2 2 3 3 2 1 1 1 2 3 3 3 3 3 3 3 3 2 0 0 0 0 0 0 0 0 0 0 0 0 0 0
3 6 8 7 5 3 2 2 1 2 3 3 2 1 2 2 3 3 3 3 3 3 3 1 0 0 0 0 0 0 0 0 0 0 0 0 0 0
3 6 9 9 6 5 5 3 1 1 3 3 3 2 2 1 1 2 3 3 3 3 3 1 0 0 0 0 0 0 0 0 0 0 0 0 0 0
4 4 6 8 7 6 6 5 2 1 3 3 3 2 1 0 0 1 1 3 3 3 3 2 1 0 0 0 0 0 0 0 0 0 0 0 0 0
4 4 5 7 7 6 6 6 4 2 2 3 3 2 1 0 0 0 1 2 3 3 3 2 1 0 0 0 0 0 0 0 0 0 0 0 0 0
4 4 5 7 7 6 6 6 5 2 1 2 2 2 2 1 0 0 0 1 3 3 3 1 0 0 0 0 0 0 0 0 0 0 0 0 0 0

GEFSNE_con_prob3kmehi_294.txt.gz
EHI
2 2 3 3 4 6 8 9 9 8 7 7 6 3 1 0 0 0 0 0 0 0 0 0 0 0 0 0 0 0 0 0 0 0 0 0 0 0
1 1 2 2 4 6 9 11 11 10 9 8 6 3 1 0 0 0 0 0 0 0 0 0 0 0 0 0 0 0 0 0 0 0 0 0 0 0
0 0 1 1 3 7 9 11 12 11 10 8 6 3 1 0 0 0 0 0 0 0 0 0 0 0 0 0 0 0 0 0 0 0 0 0 0 0
0 0 1 3 5 7 8 10 10 10 9 8 7 4 1 0 0 0 0 0 0 0 0 0 0 0 0 0 0 0 0 0 0 0 0 0 0 0
1 1 3 7 9 9 9 9 9 8 8 8 7 4 2 1 0 0 0 0 0 0 0 0 0 0 0 0 0 0 0 0 0 0 0 0 0 0
3 3 5 9 11 11 11 11 10 9 8 7 5 3 2 2 1 0 0 0 0 0 0 0 0 0 0 0 0 0 0 0 0 0 0 0 0 0
6 6 6 8 9 9 10 10 10 11 9 6 3 1 1 2 1 0 0 0 0 0 0 0 0 0 0 0 0 0 0 0 0 0 0 0 0 0
8 9 9 8 7 7 7 7 7 8 9 7 3 0 0 1 1 0 0 0 0 0 0 0 0 0 0 0 0 0 0 0 0 0 0 0 0 0
11 12 12 10 8 8 8 8 6 5 6 5 3 1 1 0 0 0 0 0 0 0 0 0 0 0 0 0 0 0 0 0 0 0 0 0 0 0
15 15 14 12 10 9 9 8 7 4 2 2 2 2 1 0 0 0 0 0 0 0 0 0 0 0 0 0 0 0 0 0 0 0 0 0 0 0
17 16 14 11 9 7 6 7 7 5 2 1 1 1 1 0 0 0 0 0 0 0 0 0 0 0 0 0 0 0 0 0 0 0 0 0 0 0
15 14 11 8 5 4 4 5 6 5 4 2 1 1 0 1 1 0 0 0 0 0 1 0 0 0 0 0 0 0 0 0 0 0 0 0 0 0
12 12 9 4 2 1 2 3 4 5 4 3 2 2 1 2 2 1 0 0 1 1 1 0 0 0 0 0 0 0 0 0 0 0 0 0 0 0
11 11 7 2 0 0 0 1 1 2 3 2 2 2 2 2 2 2 1 1 1 1 0 0 0 0 0 0 0 0 0 0 0 0 0 0 0 0
7 7 4 1 0 0 0 0 0 1 2 2 1 1 1 2 3 2 2 2 2 1 0 0 0 0 0 0 0 0 0 0 0 0 0 0 0 0
2 2 1 1 0 1 1 2 1 2 4 4 2 1 1 2 2 2 2 2 2 2 1 1 0 0 0 0 0 0 0 0 0 0 0 0 0 0
0 0 1 1 2 3 4 5 4 4 5 5 3 2 2 1 1 1 2 2 1 2 2 2 1 0 0 0 0 0 0 0 0 0 0 0 0 0
1 1 1 2 4 6 7 7 6 5 6 5 4 3 3 1 0 0 1 1 0 1 1 2 2 1 0 0 0 0 0 0 0 0 0 0 0 0
0 1 2 3 5 8 10 10 8 6 5 4 4 3 3 2 1 0 0 0 0 0 1 2 2 2 1 1 0 0 0 0 0 0 0 0 0 0
0 1 2 3 6 8 10 11 9 7 4 2 2 2 2 2 1 0 0 0 0 0 0 1 1 2 2 2 1 1 0 0 0 0 0 0 0 0
0 0 1 2 5 7 8 8 8 7 4 1 1 1 1 1 0 0 0 0 0 0 0 0 0 1 2 2 2 2 1 0 0 0 0 0 0 0
0 0 1 1 3 6 7 6 5 4 3 2 1 0 0 0 0 0 0 0 0 0 0 0 0 0 1 1 2 2 1 0 0 0 0 0 0 0
0 1 2 2 2 4 6 5 2 1 2 2 2 1 0 0 0 0 0 0 0 0 0 0 0 0 0 0 1 2 2 1 0 0 0 0 0 0

GEFSNE_con_prob3kmehi_300.txt.gz
EHI
3 2 3 4 5 8 9 9 9 8 8 10 11 10 9 8 5 3 3 1 0 0 0 0 0 0 0 0 0 0 0 0 0 0 0 0 0 0
4 4 4 4 6 8 11 12 13 12 11 10 11 12 11 9 7 6 5 3 1 0 0 0 0 0 0 0 0 0 0 0 0 0 0 0 0 0
6 6 6 7 8 9 11 14 16 16 15 13 13 15 14 11 9 9 7 5 3 1 0 0 0 0 0 0 0 0 0 0 0 0 0 0 0 0
9 9 9 9 11 11 11 13 15 17 18 17 16 16 14 11 10 10 8 6 4 1 0 0 0 0 0 0 0 0 0 0 0 0 0 0 0 0
11 12 11 11 13 14 14 14 15 17 18 19 18 17 14 10 9 8 7 7 4 1 0 0 0 0 0 0 0 0 0 0 0 0 0 0 0 0
15 14 13 13 15 17 17 18 18 18 19 18 18 17 15 13 10 8 7 8 7 4 2 1 0 0 0 0 0 0 0 0 0 0 0 0 0 0
19 17 15 15 16 15 14 14 16 18 19 18 17 17 17 16 14 11 10 9 9 7 6 4 2 1 0 0 0 0 0 0 0 0 0 0 0 0
23 21 18 17 16 12 8 6 8 12 15 17 18 18 18 18 16 14 13 12 11 10 9 7 4 3 1 0 0 0 0 0 0 0 0 0 0 0
27 25 21 19 18 15 10 6 6 7 9 13 15 17 18 17 17 16 15 14 13 13 11 8 7 6 3 1 0 0 0 0 0 0 0 0 0 0
27 26 24 21 19 18 16 14 12 9 6 7 10 12 12 12 13 14 15 15 14 14 12 10 8 6 4 3 1 0 0 0 0 0 0 0 0 0
26 26 24 21 18 16 18 20 19 15 8 5 5 6 6 6 6 8 11 13 12 12 12 11 8 6 5 4 2 1 0 0 0 0 0 0 0 0
27 25 20 16 12 10 15 21 22 17 13 9 7 6 6 5 5 6 7 8 9 10 12 11 8 6 5 4 3 2 1 0 0 0 0 0 0 0
24 24 19 11 4 3 7 14 16 15 14 14 13 12 11 10 10 10 9 8 8 9 11 10 8 6 5 4 3 2 1 1 0 0 0 0 0 0
21 19 14 6 1 0 2 5 6 8 12 15 16 15 13 13 14 14 13 11 9 9 10 9 8 7 5 5 4 2 2 3 2 0 0 0 0 1
13 10 6 2 0 0 0 0 2 6 11 13 14 15 14 14 14 14 13 12 10 9 9 8 8 8 7 5 4 3 4 4 4 2 1 1 1 2
7 5 3 2 2 2 2 2 5 9 11 12 13 14 15 14 13 12 11 11 9 8 7 7 6 6 6 6 4 3 4 5 5 5 4 3 3 2
7 6 6 6 6 6 6 6 9 11 12 12 13 14 15 15 13 12 12 10 8 7 6 6 5 5 5 5 4 3 4 4 5 6 6 5 3 1
7 9 10 10 11 11 10 10 11 13 13 13 13 13 14 14 14 13 12 10 7 6 6 6 6 5 4 4 4 3 3 4 3 3 4 3 1 0
6 10 12 11 11 11 10 9 9 10 12 12 12 13 14 14 13 13 12 10 8 7 6 6 6 5 4 3 3 2 2 3 2 1 1 1 1 0
6 9 10 9 8 7 7 7 6 8 10 11 11 12 13 14 13 12 12 10 8 6 5 5 5 4 3 3 2 1 1 1 1 1 1 1 1 1
5 5 6 5 5 4 4 5 5 7 9 10 10 11 12 12 11 10 10 9 8 6 4 4 5 4 3 2 1 0 1 1 1 1 1 1 1 0
3 3 4 4 4 4 4 4 5 6 8 9 10 10 10 10 9 7 6 7 7 5 3 3 4 3 1 1 0 1 2 2 1 1 0 0 0 0
3 4 5 5 5 5 5 5 5 5 7 9 10 10 10 10 8 5 4 6 6 4 2 2 3 3 1 0 0 1 2 3 2 2 1 0 0 0

GEFSNE_con_prob3kmehi_306.txt.gz
EHI
19 19 18 15 14 13 14 16 16 14 12 13 14 16 18 15 11 14 16 9 2 0 0 0 0 0 0 0 0 0 0 0 0 0 0 0 0 0
19 20 20 17 14 13 13 14 15 13 13 15 16 17 17 14 11 13 14 9 3 1 0 0 0 0 0 0 0 0 0 0 0 0 0 0 0 0
18 20 22 19 15 14 13 12 13 14 14 15 18 20 19 17 14 13 12 9 6 3 1 0 0 0 0 0 0 0 0 0 0 0 0 0 0 0
21 21 24 23 20 19 18 15 14 15 16 15 18 23 24 22 19 15 12 11 9 4 1 0 0 0 0 0 0 0 0 0 0 0 0 0 0 0
26 25 26 27 26 26 25 20 17 18 19 19 18 22 26 24 20 17 15 14 11 6 3 1 0 0 0 0 0 0 0 0 0 0 0 0 0 0
29 28 27 26 26 27 26 23 20 19 20 21 20 20 23 25 22 18 16 16 13 9 6 3 1 0 0 0 0 0 0 0 0 0 0 0 0 0
30 29 27 24 22 21 20 20 21 20 19 18 19 19 20 24 23 17 14 14 13 13 11 6 3 2 0 0 0 0 0 0 0 0 0 0 0 0
31 30 28 23 20 17 13 12 14 16 16 16 17 17 19 20 20 16 13 12 13 14 12 8 6 5 2 0 0 0 0 0 0 0 0 0 0 0
30 31 29 25 22 20 16 11 11 10 11 14 15 15 17 19 19 17 15 14 14 14 12 8 7 7 5 2 0 0 0 0 0 0 0 0 0 0
27 29 32 29 25 24 22 20 19 14 9 8 10 11 12 14 17 18 17 14 13 13 12 10 9 8 6 4 2 0 0 0 0 0 0 0 0 0
26 27 29 29 25 22 24 26 26 22 13 6 5 5 5 6 10 14 15 13 10 11 14 14 11 9 7 5 3 1 0 0 0 0 0 0 0 0
25 25 24 22 19 18 21 26 27 25 18 11 6 5 5 4 5 9 11 11 9 10 13 14 13 10 8 6 5 2 0 0 0 0 0 0 0 0
23 22 19 14 10 8 12 18 21 21 19 15 11 11 10 8 7 9 9 9 9 10 12 13 13 11 7 6 6 4 2 0 0 0 0 0 0 0
21 19 15 8 3 2 4 8 10 12 14 15 15 15 14 12 11 11 11 9 8 9 11 12 12 10 8 5 4 4 3 1 1 2 1 1 1 0
16 13 8 3 1 0 0 2 4 6 10 13 15 16 15 13 13 13 13 12 10 9 10 10 10 10 9 6 3 2 2 2 2 3 3 2 1 1
11 9 7 4 3 2 2 2 4 6 10 12 14 14 13 12 12 11 12 13 12 10 10 10 10 9 9 7 4 2 1 2 3 3 3 2 1 0
12 13 13 11 10 9 9 8 9 11 12 12 11 10 11 11 10 9 9 10 10 10 11 11 11 9 7 5 3 1 1 2 3 3 3 1 0 0
13 16 18 18 17 16 16 15 16 17 17 14 12 10 11 11 10 8 7 6 6 8 10 11 10 8 5 2 1 0 0 1 2 2 2 1 0 0
11 14 18 20 20 19 18 18 18 20 20 17 14 13 13 13 11 8 6 4 4 5 6 8 8 6 4 2 0 0 0 0 1 1 1 0 0 0
11 13 16 18 18 18 17 17 18 20 20 17 15 15 14 13 11 8 6 4 3 3 3 4 5 5 4 2 1 0 0 0 0 0 0 0 0 0
12 13 14 16 17 17 16 15 16 17 16 14 14 15 14 13 11 9 7 5 3 2 2 2 3 4 3 3 1 0 0 0 0 0 0 0 0 0
11 11 13 15 15 14 13 12 11 11 11 11 12 12 12 10 9 8 7 6 4 3 2 1 2 2 3 3 2 2 2 1 0 0 0 0 0 0
9 10 11 12 12 11 10 8 8 8 9 10 10 11 10 8 7 8 7 6 5 3 2 1 1 1 2 3 3 3 3 2 1 0 0 0 0 0

GEFSNE_con_prob3kmehi_312.txt.gz
EHI
1 2 2 3 4 5 5 4 3 1 0 0 0 0 0 0 1 1 1 0 0 0 0 0 0 0 0 0 1 2 2 3 3 3 3 3 1 0
2 2 2 2 3 3 3 3 3 2 0 0 0 1 1 0 0 0 0 0 0 0 0 0 0 0 0 0 0 1 1 2 3 3 3 3 2 1
2 2 2 1 1 1 1 2 2 2 1 1 1 2 2 1 1 0 0 0 0 0 0 0 0 0 0 0 0 0 0 1 1 2 3 3 3 3
4 4 4 2 0 0 1 2 3 3 3 3 3 4 4 3 1 0 0 0 0 0 0 0 0 0 0 0 0 0 0 0 0 1 2 3 3 3
7 7 5 3 1 0 2 3 5 6 6 5 5 6 6 4 2 1 0 0 0 0 0 0 0 0 0 0 0 0 0 0 0 0 1 1 2 2
7 8 7 5 2 2 2 4 6 6 6 6 6 7 6 4 3 2 1 1 0 0 0 0 0 0 0 0 0 0 0 0 0 0 0 0 1 1
5 6 6 5 4 3 3 3 4 6 6 6 6 5 4 3 2 2 2 2 1 0 0 0 0 0 0 0 0 0 0 0 0 0 0 0 0 0
4 4 4 4 4 3 2 1 3 4 4 5 5 4 3 2 1 1 2 3 3 1 0 0 0 0 0 0 0 0 0 0 0 0 0 0 0 0
5 4 4 4 4 3 2 1 2 2 3 4 4 4 4 3 1 0 1 1 2 2 1 1 2 1 0 0 0 0 0 0 0 0 0 0 0 0
6 6 5 5 5 4 3 2 2 2 2 2 3 4 4 3 1 0 0 1 1 2 2 2 3 2 1 0 0 0 0 0 0 0 0 0 0 0
6 5 4 5 5 4 4 4 4 3 2 1 2 2 2 1 0 0 0 1 1 1 1 2 2 2 1 0 0 0 0 0 0 0 0 0 0 0
4 5 4 4 3 2 3 5 6 4 3 2 1 1 0 0 0 0 0 1 1 1 0 1 1 1 1 0 0 0 0 0 0 0 0 0 0 0
5 6 6 4 2 1 2 4 5 4 3 3 2 1 1 0 1 1 1 2 2 2 1 0 0 1 1 1 0 0 0 0 0 0 0 0 0 0
8 7 5 3 1 0 1 2 3 3 3 4 3 2 2 2 2 3 3 3 3 2 2 1 1 1 1 1 0 0 0 0 0 0 0 0 0 0
8 6 3 1 0 0 0 1 1 2 3 3 3 3 2 2 2 3 4 4 2 2 2 2 2 2 1 1 0 0 0 0 0 0 0 0 0 0
3 2 1 0 0 0 0 0 0 1 2 3 3 2 1 1 1 2 3 3 3 3 3 4 4 4 2 1 0 0 0 0 0 0 0 0 0 0
0 1 1 0 1 1 1 1 1 0 1 2 2 2 1 0 1 2 2 2 2 3 3 4 5 4 3 1 0 0 0 0 0 0 0 0 0 0
1 2 3 2 2 2 2 2 1 1 1 1 1 1 0 0 1 2 1 1 1 1 3 4 4 4 3 1 0 0 0 0 0 0 0 0 0 0
2 4 4 3 3 3 3 2 1 1 1 2 1 1 0 0 1 1 1 1 0 1 3 4 4 3 2 1 0 0 0 0 0 0 0 0 0 0
1 2 3 3 3 3 3 2 1 1 2 3 3 2 1 0 0 1 2 2 1 1 3 4 4 2 1 0 0 0 0 0 0 0 0 0 0 0
0 1 1 3 3 3 3 3 3 2 3 3 3 2 1 0 0 1 2 3 2 2 2 3 2 1 0 0 0 0 0 0 0 0 0 0 0 0
0 0 1 2 2 2 3 3 3 3 3 3 3 2 1 0 0 1 2 3 3 2 1 1 1 0 0 0 0 0 0 0 0 0 0 0 0 0
0 1 1 1 1 1 2 3 3 3 3 3 3 2 1 0 0 1 2 3 3 2 1 0 0 0 0 0 0 0 0 0 0 0 0 0 0 0

GEFSNE_con_prob3kmehi_318.txt.gz
EHI
0 0 0 1 2 3 3 4 4 4 2 1 0 0 0 0 0 0 0 0 0 0 0 0 0 0 0 0 0 1 2 2 2 2 3 4 3 2
0 0 0 0 1 2 3 4 5 5 4 2 1 1 1 0 0 0 0 0 0 0 0 0 0 0 0 0 0 0 1 1 1 1 2 3 3 3
0 1 1 1 2 3 4 5 6 7 6 4 3 2 2 1 1 1 1 0 0 0 0 0 0 0 0 0 0 0 0 0 0 0 1 2 3 3
2 3 3 4 5 6 6 6 7 8 7 5 4 3 3 3 2 2 2 1 0 0 0 0 0 0 0 0 0 0 0 0 0 0 0 1 2 2
4 5 5 6 7 8 8 7 7 8 8 6 4 3 3 3 4 4 4 2 1 0 0 0 0 0 0 0 0 0 0 0 0 0 0 0 1 1
5 5 5 6 6 7 8 7 7 9 10 8 6 4 4 4 5 5 4 3 1 0 0 0 0 0 0 0 0 0 0 0 0 0 0 0 0 0
5 5 5 5 4 4 4 5 6 8 8 8 7 7 6 6 6 5 4 3 2 1 0 0 0 0 0 0 0 0 0 0 0 0 0 0 0 0
3 3 3 3 3 2 1 2 3 5 6 7 9 9 9 8 7 4 3 3 2 1 0 0 0 0 0 0 0 0 0 0 0 0 0 0 0 0
2 2 2 2 2 2 1 1 2 2 3 6 8 9 9 9 8 5 4 4 2 1 0 0 0 0 0 0 0 0 0 0 0 0 0 0 0 0
2 2 3 3 3 2 2 2 2 2 2 3 5 7 7 7 7 6 5 4 2 1 0 0 0 0 0 0 0 0 0 0 0 0 0 0 0 0
2 3 3 2 2 1 1 2 2 2 2 1 2 3 3 3 3 5 6 5 3 2 2 1 1 1 1 0 0 0 0 0 0 0 0 0 0 0
3 3 2 1 1 0 0 0 0 1 1 1 1 2 2 1 1 2 4 5 5 5 4 4 3 3 2 1 1 1 1 0 0 0 0 0 0 0
4 4 3 2 0 0 0 0 0 0 0 0 1 3 4 4 2 2 2 4 5 5 5 5 5 4 3 2 2 2 1 0 0 0 0 0 0 0
4 4 3 1 0 0 0 0 0 0 0 0 0 2 4 5 4 3 2 2 3 4 4 5 5 4 3 2 1 1 1 0 0 0 0 0 0 0
2 2 2 0 0 0 0 0 0 0 0 0 1 1 3 4 4 3 3 3 3 3 3 4 4 3 2 1 0 0 0 0 0 0 0 0 0 0
0 0 0 0 0 0 0 0 0 0 0 1 2 3 3 3 3 2 2 2 2 2 3 3 3 3 2 1 0 0 0 0 0 0 0 0 0 0
0 1 1 1 1 1 1 1 0 0 0 1 2 3 3 3 3 2 1 1 1 1 1 2 3 3 3 2 0 0 0 1 1 1 0 0 0 0
1 2 2 2 2 2 2 2 1 1 1 1 2 3 3 3 3 1 0 0 0 0 0 1 2 3 2 1 0 0 1 2 2 2 1 1 0 1
1 2 3 3 3 3 3 3 3 2 2 2 2 3 3 3 2 1 0 0 0 0 0 1 1 1 1 0 0 0 1 2 3 3 3 2 2 2
2 3 3 3 3 3 3 3 3 2 2 2 2 2 2 2 1 0 0 0 0 0 0 0 0 0 0 0 0 0 1 2 3 3 3 3 3 3
3 3 3 3 3 3 3 3 1 1 1 1 1 1 1 1 0 0 0 0 0 0 0 0 0 0 0 0 0 0 0 1 1 2 3 3 3 3
3 3 3 3 3 3 3 2 1 0 0 0 0 0 0 0 0 0 0 0 0 0 0 0 0 0 0 0 0 0 0 0 1 1 1 2 2 2
3 3 3 3 3 3 3 2 1 0 0 0 0 0 0 0 0 0 0 0 0 0 0 0 0 0 0 0 0 0 0 1 1 1 0 1 1 1